CW5752 Weather Reports


time (UTC)temp
C
wind
direction
speed
KPH
gust
KPH
rain 1hr
cm
rain 24hr
cm
rain mn
cm
humidity
%
barometer
mb
20260905102022 23 0.0 0.0 0.00 0.00 0.00 93 1013.1
20260905101021 23 0.0 0.0 0.00 0.00 0.00 92 1013.0
20260905100022 23 0.0 0.0 0.00 0.00 0.00 92 1013.1
20260905095016 23 0.0 0.0 0.00 0.00 0.00 92 1013.0
20260905094021 23 0.0 0.0 0.00 0.00 0.00 92 1013.1
20260905093023 23 0.0 0.0 0.00 0.00 0.00 92 1013.1
20260905092021 23 0.0 0.0 0.00 0.00 0.00 92 1013.0
20260905091021 23 0.0 0.0 0.00 0.00 0.00 92 1013.1
20260905090042 23 0.0 0.0 0.00 0.00 0.00 90 1013.0
20260905085022 23 0.0 0.0 0.00 0.00 0.00 91 1013.0
20260905084016 23 0.0 0.0 0.00 0.00 0.00 91 1012.9
20260905083021 23 0.0 0.0 0.00 0.00 0.00 91 1012.9
20260905082022 23 0.0 0.0 0.00 0.00 0.00 91 1013.0
20260905081021 23 0.0 0.0 0.00 0.00 0.00 90 1013.1
20260905080021 24 0.0 0.0 0.00 0.00 0.00 91 1013.2
20260905075021 23 0.0 0.0 0.00 0.00 0.00 91 1013.1
20260905074016 23 0.0 0.0 0.00 0.00 0.00 90 1013.0
20260905073036 24 0.0 0.0 0.00 0.00 0.00 90 1013.0
20260905072021 24 0.0 0.0 0.00 0.00 0.00 90 1013.1
20260905071021 24 0.0 0.0 0.00 0.00 0.00 89 1013.1
20260905070021 24 0.0 0.0 0.00 0.00 0.00 90 1013.1
20260905065021 23 0.0 0.0 0.00 0.00 0.00 89 1013.2
20260905064041 24 0.0 0.0 0.00 0.00 0.00 89 1013.1
20260905063057 24 0.0 0.0 0.00 0.00 0.00 89 1013.2
20260905062021 24 0.0 0.0 0.00 0.00 0.00 89 1013.2
20260905061021 24 0.0 0.0 0.00 0.00 0.00 88 1013.2
20260905060041 24 0.0 0.0 0.00 0.00 0.00 87 1013.3
20260905055042 25 0.0 0.0 0.00 0.00 0.00 88 1013.4
20260905054022 25 0.0 0.0 0.00 0.00 0.00 88 1013.4
20260905053036 24 0.0 0.0 0.00 0.00 0.00 87 1013.4
20260905052016 25 0.0 0.0 0.00 0.00 0.00 87 1013.5
20260905051021 25 0.0 0.0 0.00 0.00 0.00 87 1013.5
20260905050022 25 0.0 0.0 0.00 0.00 0.00 85 1013.4
20260905045042 25 0.0 0.0 0.00 0.00 0.00 85 1013.5
20260905044022 25 0.0 0.0 0.00 0.00 0.00 86 1013.5
20260905043022 26 0.0 0.0 0.00 0.00 0.00 83 1013.4
20260905042023 26 0.0 0.0 0.00 0.00 0.00 81 1013.2
20260905041022 26 0.0 0.0 0.00 0.00 0.00 84 1013.3
20260905040017 26 0.0 0.0 0.00 0.00 0.00 84 1013.3
20260905035022 26 0.0 0.0 0.00 0.00 0.00 83 1013.3
20260905034102 26 0.0 0.0 0.00 0.00 0.00 82 1013.4
20260905033042 26 0.0 0.0 0.00 0.00 0.00 82 1013.5
20260905032022 26 0.0 0.0 0.00 0.00 0.00 82 1013.6
20260905031042 26 0.0 0.0 0.00 0.00 0.00 81 1013.6
20260905030022 26 0.0 0.0 0.00 0.00 0.00 80 1013.6
20260905025017 27 0.0 0.0 0.00 0.00 0.00 78 1013.6
20260905024022 27 0.0 0.0 0.00 0.00 0.00 78 1013.5
20260905023022 27 0.0 0.0 0.00 0.00 0.00 78 1013.4
20260905022022 28 0.0 0.0 0.00 0.00 0.00 73 1013.3
20260905021022 28 0.0 0.0 0.00 0.00 0.00 74 1013.3
20260905020022 29 0.0 0.0 0.00 0.00 0.00 72 1013.2
20260905015017 28 0.0 0.0 0.00 0.00 0.00 75 1013.0
20260905014022 28 0.0 0.0 0.00 0.00 0.00 73 1012.9
20260905013022 29 0.0 0.0 0.00 0.00 0.00 72 1012.7
20260905012022 29 0.0 0.0 0.00 0.00 0.00 72 1012.6
20260905011022 30 0.0 0.0 0.00 0.00 0.00 70 1012.4
20260905010022 29 0.0 0.0 0.00 0.00 0.00 71 1012.2
20260905005022 30 0.0 3.2 0.00 0.00 0.00 70 1012.2
20260905004017 30 0.0 0.0 0.00 0.00 0.00 70 1012.0
20260905003022 30 0.0 0.0 0.00 0.00 0.00 66 1012.0
20260905002025 31 0.0 3.2 0.00 0.00 0.00 65 1012.0
20260905001022 31 0.0 0.0 0.00 0.00 0.00 61 1012.0
20260905000042 33 0.0 0.0 0.00 0.00 0.00 58 1012.1
20260904235022 33 0.0 0.0 0.00 0.00 0.00 54 1012.1
20260904234017 34 203 0.0 3.2 0.00 0.00 0.00 52 1012.1
20260904233037 34 204 0.0 3.2 0.00 0.00 0.00 52 1012.1
20260904232023 35 203 0.0 4.8 0.00 0.00 0.00 54 1012.0
20260904231022 35 204 0.0 4.8 0.00 0.00 0.00 49 1012.0
20260904230022 36 204 0.0 4.8 0.00 0.00 0.00 45 1012.1
20260904225022 36 204 0.0 3.2 0.00 0.00 0.00 45 1012.0
20260904224022 36 204 0.0 3.2 0.00 0.00 0.00 46 1011.9
20260904223017 36 204 0.0 6.4 0.00 0.00 0.00 46 1011.9
20260904222042 36 194 1.6 9.7 0.00 0.00 0.00 44 1012.0
20260904221102 37 244 0.0 6.4 0.00 0.00 0.00 44 1012.0
20260904220022 37 214 1.6 9.7 0.00 0.00 0.00 44 1012.0
20260904215022 37 202 0.0 9.7 0.00 0.00 0.00 44 1012.2
20260904214023 37 206 1.6 6.4 0.00 0.00 0.00 44 1012.3
20260904213024 37 271 0.0 6.4 0.00 0.00 0.00 43 1012.5
20260904212020 37 242 1.6 8.0 0.00 0.00 0.00 43 1012.6
20260904211022 37 282 3.2 9.7 0.00 0.00 0.00 44 1012.7
20260904210022 37 201 1.6 9.7 0.00 0.00 0.00 43 1012.8
20260904205022 37 248 0.0 8.0 0.00 0.00 0.00 47 1012.9
20260904204022 34 0.0 0.0 0.00 0.00 0.00 58 1012.9
20260904203042 35 278 0.0 3.2 0.00 0.00 0.00 48 1013.0
20260904202017 36 278 1.6 8.0 0.00 0.00 0.00 47 1013.2
20260904201017 37 276 1.6 9.7 0.00 0.00 0.00 46 1013.4
20260904200022 37 179 0.0 6.4 0.00 0.00 0.00 44 1013.5
20260904195042 37 179 0.0 8.0 0.00 0.00 0.00 43 1013.7
20260904194022 37 202 3.2 16.1 0.00 0.00 0.00 45 1013.8
20260904193020 37 262 0.0 8.0 0.00 0.00 0.00 45 1014.1
20260904192022 36 276 1.6 8.0 0.00 0.00 0.00 43 1014.1
20260904191037 36 277 0.0 9.7 0.00 0.00 0.00 48 1014.3
20260904190022 36 271 0.0 6.4 0.00 0.00 0.00 47 1014.5
20260904185022 36 283 3.2 12.9 0.00 0.00 0.00 50 1014.6
20260904184022 36 265 0.0 9.7 0.00 0.00 0.00 47 1014.6
20260904183022 36 268 3.2 11.3 0.00 0.00 0.00 48 1014.7
20260904182022 36 274 3.2 11.3 0.00 0.00 0.00 53 1014.7
20260904181022 35 269 0.0 3.2 0.00 0.00 0.00 57 1014.8
20260904180017 35 270 1.6 9.7 0.00 0.00 0.00 48 1014.9
20260904175042 35 273 0.0 9.7 0.00 0.00 0.00 51 1014.9
20260904174022 35 198 3.2 11.3 0.00 0.00 0.00 48 1015.0
20260904173022 36 240 1.6 17.7 0.00 0.00 0.00 52 1015.1
20260904172022 35 175 1.6 11.3 0.00 0.00 0.00 49 1015.3
20260904171042 36 193 3.2 11.3 0.00 0.00 0.00 49 1015.4
20260904170037 36 224 3.2 11.3 0.00 0.00 0.00 49 1015.5
20260904165017 35 236 1.6 11.3 0.00 0.00 0.00 52 1015.7
20260904164022 35 251 3.2 12.9 0.00 0.00 0.00 51 1015.7
20260904163022 35 254 3.2 9.7 0.00 0.00 0.00 52 1015.6
20260904162022 34 282 0.0 9.7 0.00 0.00 0.00 55 1015.7
20260904161022 34 254 1.6 6.4 0.00 0.00 0.00 54 1015.9
20260904160022 33 273 3.2 14.5 0.00 0.00 0.00 56 1016.0
20260904155017 33 275 4.8 12.9 0.00 0.00 0.00 54 1015.9
20260904154022 33 0.0 0.0 0.00 0.00 0.00 57 1015.9
20260904153022 32 0.0 0.0 0.00 0.00 0.00 61 1016.0
20260904152022 32 0.0 0.0 0.00 0.00 0.00 63 1015.9
20260904151023 32 0.0 0.0 0.00 0.00 0.00 61 1016.0
20260904150022 31 0.0 0.0 0.00 0.00 0.00 65 1015.8
20260904145017 31 0.0 0.0 0.00 0.00 0.00 65 1015.7
20260904144017 31 0.0 0.0 0.00 0.00 0.00 65 1015.7
20260904143022 30 0.0 0.0 0.00 0.00 0.00 70 1015.7
20260904142022 30 0.0 0.0 0.00 0.00 0.00 70 1015.6
20260904141022 29 0.0 0.0 0.00 0.00 0.00 74 1015.6
20260904140042 28 0.0 0.0 0.00 0.00 0.00 75 1015.7
20260904135022 28 0.0 0.0 0.00 0.00 0.00 78 1015.6
20260904134017 27 0.0 0.0 0.00 0.00 0.00 80 1015.5
20260904133022 26 0.0 0.0 0.00 0.00 0.00 82 1015.6
20260904132022 26 0.0 0.0 0.00 0.00 0.00 84 1015.6
20260904131021 26 0.0 0.0 0.00 0.00 0.00 86 1015.6
20260904130022 25 0.0 0.0 0.00 0.00 0.00 90 1015.5
20260904125022 24 0.0 0.0 0.00 0.00 0.00 90 1015.4
20260904124022 24 0.0 0.0 0.00 0.00 0.00 91 1015.4
20260904123016 23 0.0 0.0 0.00 0.00 0.00 92 1015.2
20260904122021 23 0.0 0.0 0.00 0.00 0.00 92 1015.1
20260904121022 23 0.0 0.0 0.00 0.00 0.00 92 1015.1
20260904120022 22 0.0 0.0 0.00 0.00 0.00 92 1015.1
20260904115021 23 0.0 0.0 0.00 0.00 0.00 92 1014.9
20260904114022 23 0.0 0.0 0.00 0.00 0.00 92 1014.9
20260904113017 23 0.0 0.0 0.00 0.00 0.00 92 1014.7
20260904112022 22 0.0 0.0 0.00 0.00 0.00 92 1014.6
20260904111022 22 0.0 0.0 0.00 0.00 0.00 92 1014.6
20260904110022 22 0.0 0.0 0.00 0.00 0.00 91 1014.6
20260904105021 22 196 0.0 3.2 0.00 0.00 0.00 90 1014.5
20260904104022 23 0.0 0.0 0.00 0.00 0.00 92 1014.3
20260904103022 23 0.0 0.0 0.00 0.00 0.00 92 1014.3